Regional Weather Roundup
Issued by NWS

Home | Current Version | Previous Version | Text Only | Print | Product List | Glossary On
Versions: 1 2 3 4 5 6 7 8 9 10 11 12 13 14 15 16 17 18 19 20 21 22 23 24 25 26 27 28 29 30 31 32 33 34 35 36 37 38 39 40 41 42 43 44 45 46 47 48 49 50
000
ASUS46 KPQR 190910
RWROR

OREGON REGIONAL WEATHER ROUNDUP
NATIONAL WEATHER SERVICE PORTLAND OR
200 AM PDT SAT AUG 19 2017

NOTE: "FAIR" INDICATES FEW OR NO CLOUDS BELOW 12,000 FEET WITH
NO SIGNIFICANT WEATHER AND/OR OBSTRUCTIONS TO VISIBILITY.

ORZ001>013-191000-
NORTHWEST OREGON


CITY           SKY/WX    TMP DP  RH WIND       PRES   REMARKS
ASTORIA        MOCLDY    58  53  84 NW10      30.20S
NEWPORT        MOCLDY    55  55 100 N3        30.21S
PORTLAND       MOCLDY    64  56  75 NW9       30.16S
VANCOUVER WA   CLEAR     64  57  78 NW5       30.15S
SCAPPOOSE      CLEAR     61  54  77 VRB3      30.15S
HILLSBORO      PTCLDY    62  55  77 N7        30.16S
AURORA         CLEAR     63  54  72 CALM      30.17S
MCMINNVILLE    CLEAR     56  55  97 SW5       30.17S
SALEM          MOCLDY    63  55  75 NW8       30.15R
CORVALLIS      CLEAR     59  54  82 NW3       30.16F
EUGENE         CLEAR     57  53  86 N7        30.14S
$$

ORZ021-028-191000-
SOUTHWEST OREGON


CITY           SKY/WX    TMP DP  RH WIND       PRES   REMARKS
NORTH BEND     CLOUDY    57  57 100 N17       30.17S FOG
BROOKINGS      CLOUDY    62  53  72 CALM      30.01S
ROSEBURG       CLEAR     67  51  56 CALM      30.11S
SEXTON SUMMIT  CLEAR     57  48  72 N13G18    30.16F
GRANTS PASS    FAIR      72  52  49 NW7       30.11S
MEDFORD        CLEAR     65  42  43 S3        30.07S
$$

ORZ014>016-041-191000-
COLUMBIA GORGE


CITY           SKY/WX    TMP DP  RH WIND       PRES   REMARKS
TROUTDALE      MOCLDY    64  57  78 W6        30.15S
HOOD RIVER     PTCLDY    63  55  77 NW8       30.09S
THE DALLES     CLEAR     70  55  59 NW15G26   30.04R
$$

ORZ029>031-041-044-049-050-061>064-502-503-505>511-191000-
EASTERN OREGON


CITY           SKY/WX    TMP DP  RH WIND       PRES   REMARKS
MADRAS         CLEAR     57  50  77 N3        30.14S
REDMOND        CLEAR     58  45  62 NE7       30.14S
BEND           CLEAR     54  41  62 NW5       30.16S
PRINEVILLE     CLEAR     54  43  66 NW3       30.14F
KLAMATH FALLS  CLOUDY    52  48  86 CALM      30.15F FOG
LAKEVIEW       CLEAR    N/A N/A N/A N15       30.17F
HERMISTON      CLEAR     67  55  65 W10       30.01S
PENDLETON      CLEAR     67  51  56 W13       30.04S
JOHN DAY       CLEAR     65  34  32 CALM      30.13F
MEACHAM        PTCLDY    59  41  51 CALM      30.14S
LA GRANDE      NOT AVBL
BAKER CITY     MOCLDY    67  41  38 SW5       30.09S
BURNS          CLEAR     58  29  33 W7        30.12F
ROME             N/A     58  20  22 SE8       30.07S
ONTARIO        PTCLDY    76  35  22 NW13G21   29.97S
$$



USA.gov is the U.S. government's official web portal to all federal, state and local government web resources and services.